Location: Unspecified
(0.0000°N, 0.0000°E)
Time: 11:35:57
(UTC+02:00)

CZ-4B R/B - Visible Passes

Search period start: 17 April 2014 00:00
Search period end: 27 April 2014 00:00
Orbit: 494 x 680 km, 97.6° (Epoch: 16 April)

Date Brightness Start Highest point End Pass type
(mag) Time Alt. Az. Time Alt. Az. Time Alt. Az.
17 Apr 5.5 06:04:23 10° N 06:04:39 12° N 06:04:39 12° N visible
18 Apr 5.3 06:11:35 10° N 06:12:05 13° N 06:12:05 13° N visible
19 Apr 5.1 06:18:50 10° N 06:19:29 15° N 06:19:29 15° N visible
20 Apr 5.0 06:26:08 10° NNW 06:26:54 15° NNW 06:26:54 15° NNW visible
21 Apr 5.0 06:33:30 10° NNW 06:34:18 15° NNW 06:34:18 15° NNW visible
22 Apr 5.0 06:40:56 10° NNW 06:41:41 14° NW 06:41:41 14° NW visible
23 Apr 5.0 06:48:28 10° NW 06:49:04 13° NW 06:49:04 13° NW visible
24 Apr 5.1 06:56:11 10° NW 06:56:27 11° NW 06:56:27 11° NW visible
25 Apr 5.9 05:26:49 10° NE 05:27:19 13° NE 05:27:19 13° NE visible
26 Apr 5.6 05:33:39 10° NE 05:34:41 16° NE 05:34:41 16° NE visible
